sat.trackr.live / text

‹ back to catalog

TIANMU-1 07

NORAD 57399 · 2023-101A

PAYLOAD ACTIVE UNKNOWN

§ Identity

Operator
Country
PRC
Launch date
2023-07-20
Launch site
JSC
Launch vehicle
Mass (kg)
RCS (m²)

Purposes: earth_obs

External: N2YO · Heavens-Above · Gunter

§ Orbital elements

Epoch: 2026-05-25T04:54:25.292160Z

Period
94.15 min
Inclination
97.2608°
Eccentricity
0.0002268
Mean motion
15.29496939 rev/d
Perigee alt
475.8 km
Apogee alt
478.9 km
Semi-major
6,855.5 km
B*
2.1434e-4
RAAN
196.4041°
Arg perigee
173.0101°
Mean anomaly
187.1171°
Rev number
15,813

§ Raw data

TIANMU-1 071 57399U 23101A   26145.20445940  .00006055  00000+0  21434-3 0  99982 57399  97.2608 196.4041 0002268 173.0101 187.1171 15.29496939158134

JSON: /api/v1/satellites/57399 · /tle

For live sub-satellite position, see the globe view (requires WebGL).

§ Visibility from observer

Set your observer location to see the next 7 days of passes ≥ 10°. The values pass through the URL so the page stays shareable.

No JS? Fill the form by hand. The geolocation button needs JavaScript.